SVFLIR Weather Reports


Display with metric or nautical units.
time (UTC)temp
F
wind
direction
speed
MPH
gust
MPH
rain 1hr
in
rain 24hr
in
rain mn
in
humidity
%
barometer
mb
20260902125925 72 132 0.0 0.0 0.00 0.00 0.00 100 1009.4
20260902125418 74 132 0.0 0.0 0.00 0.00 0.00 100 1009.4
20260902124906 73 132 0.0 0.0 0.00 0.00 0.00 100 1009.4
20260902124351 72 132 0.0 0.0 0.00 0.00 0.00 100 1009.4
20260902123331 75 132 0.0 0.0 0.00 0.00 0.00 100 1009.4
20260902122804 69 132 0.0 0.0 0.00 0.00 0.00 100 1009.4
20260902122249 73 132 0.0 0.0 0.00 0.00 0.00 100 1009.4
20260902121749 71 132 0.0 0.0 0.00 0.00 0.00 100 1009.4
20260902121224 72 132 0.0 0.0 0.00 0.00 0.00 100 1009.4
20260902120723 74 132 0.0 0.0 0.00 0.00 0.00 100 1009.4
20260902120219 67 132 0.0 0.0 0.00 0.00 0.00 100 1009.4
20260902115707 72 132 0.0 0.0 0.00 0.00 0.00 100 1009.4
20260902115427 72 132 0.0 0.0 0.00 0.00 0.00 100 1009.4
20260902114700 74 132 0.0 0.0 0.00 0.00 0.00 100 1009.4
20260902114155 74 132 0.0 0.0 0.00 0.00 0.00 100 1009.4
20260902113640 74 132 0.0 0.0 0.00 0.00 0.00 100 1009.4
20260902113138 74 132 0.0 0.0 0.00 0.00 0.00 100 1009.4
20260902112633 75 132 0.0 0.0 0.00 0.00 0.00 100 1009.4
20260902112132 75 132 0.0 0.0 0.00 0.00 0.00 100 1009.4
20260902111848 76 132 0.0 0.0 0.00 0.00 0.00 100 1009.4
20260902111119 77 132 0.0 0.0 0.00 0.00 0.00 100 1009.4
20260902110619 73 132 0.0 0.0 0.00 0.00 0.00 100 1009.4
20260902110327 76 132 0.0 0.0 0.00 0.00 0.00 100 1009.4
20260902105606 72 132 0.0 0.0 0.00 0.00 0.00 100 1009.4
20260902104530 75 132 0.0 0.0 0.00 0.00 0.00 100 1009.4
20260902104021 73 132 0.0 0.0 0.00 0.00 0.00 100 1009.4
20260902103744 73 132 0.0 0.0 0.00 0.00 0.00 100 1009.4
20260902103236 75 132 0.0 0.0 0.00 0.00 0.00 100 1009.4
20260902102502 76 132 0.0 0.0 0.00 0.00 0.00 100 1009.4
20260902101948 76 132 0.0 0.0 0.00 0.00 0.00 100 1009.4
20260902101441 75 132 0.0 0.0 0.00 0.00 0.00 100 1009.4
20260902100928 76 132 0.0 0.0 0.00 0.00 0.00 100 1009.4
20260902100427 76 132 0.0 0.0 0.00 0.00 0.00 100 1009.4
20260902095921 77 132 0.0 0.0 0.00 0.00 0.00 100 1009.4
20260902095354 78 132 0.0 0.0 0.00 0.00 0.00 100 1009.4
20260902094849 78 132 0.0 0.0 0.00 0.00 0.00 100 1009.4
20260902094346 78 132 0.0 0.0 0.00 0.00 0.00 100 1009.4
20260902093844 79 132 0.0 0.0 0.00 0.00 0.00 100 1009.4
20260902093335 79 132 0.0 0.0 0.00 0.00 0.00 100 1009.4
20260902092824 79 132 0.0 0.0 0.00 0.00 0.00 100 1009.4
20260902092314 78 132 0.0 0.0 0.00 0.00 0.00 100 1009.4
20260902092028 78 132 0.0 1.0 0.00 0.00 0.00 100 1009.4
20260902091244 78 132 0.0 2.0 0.00 0.00 0.00 100 1009.4
20260902091004 79 132 0.0 4.0 0.00 0.00 0.00 100 1009.4
20260902090231 80 232 0.0 4.0 0.00 0.00 0.00 100 1009.4
20260902085724 80 271 1.0 4.0 0.00 0.00 0.00 100 1009.4
20260902085223 80 160 0.0 0.0 0.00 0.00 0.00 100 1009.4
20260902084718 80 160 0.0 0.0 0.00 0.00 0.00 100 1009.4
20260902084216 80 160 0.0 0.0 0.00 0.00 0.00 100 1009.4
20260902083649 80 160 0.0 3.0 0.00 0.00 0.00 100 1009.4
20260902083122 80 160 0.0 3.0 0.00 0.00 0.00 100 1009.4
20260902082615 80 130 1.0 4.0 0.00 0.00 0.00 100 1009.4
20260902082114 80 132 1.0 5.0 0.00 0.00 0.00 100 1009.4
20260902081614 80 199 0.0 6.0 0.00 0.00 0.00 100 1009.4
20260902081113 80 151 4.0 6.0 0.00 0.00 0.00 100 1009.4
20260902080612 80 120 0.0 0.0 0.00 0.00 0.00 100 1009.4
20260902080112 80 120 0.0 4.0 0.00 0.00 0.00 100 1009.4
20260902075607 80 120 0.0 4.0 0.00 0.00 0.00 100 1009.4
20260902075052 80 120 1.0 4.0 0.00 0.00 0.00 100 1009.4
20260902074809 81 144 0.0 4.0 0.00 0.00 0.00 100 1009.4
20260902074045 80 144 1.0 4.0 0.00 0.00 0.00 100 1009.4
20260902073543 79 202 1.0 6.0 0.00 0.00 0.00 100 1009.4
20260902073038 79 244 0.0 7.0 0.00 0.00 0.00 100 1009.4
20260902072521 79 172 2.0 7.0 0.00 0.00 0.00 100 1009.4
20260902072019 79 206 3.0 7.0 0.00 0.00 0.00 100 1009.4
20260902071518 79 240 1.0 5.0 0.00 0.00 0.00 100 1009.4
20260902071017 79 267 0.0 4.0 0.00 0.00 0.00 100 1009.4
20260902070457 79 267 0.0 4.0 0.00 0.00 0.00 100 1009.4
20260902065949 77 225 0.0 4.0 0.00 0.00 0.00 100 1009.4
20260902065449 76 113 0.0 4.0 0.00 0.00 0.00 100 1009.4
20260902064942 79 142 1.0 3.0 0.00 0.00 0.00 100 1009.4
20260902064713 79 126 0.0 0.0 0.00 0.00 0.00 100 1009.4
20260902063426 78 126 0.0 0.0 0.00 0.00 0.00 100 1009.4
20260902062920 80 126 0.0 0.0 0.00 0.00 0.00 100 1009.4
20260902062410 80 126 0.0 0.0 0.00 0.00 0.00 100 1009.4
20260902061900 81 126 0.0 0.0 0.00 0.00 0.00 100 1009.4
20260902061353 81 126 0.0 0.0 0.00 0.00 0.00 100 1009.4
20260902060853 83 126 0.0 5.0 0.00 0.00 0.00 100 1009.4
20260902060349 83 126 0.0 5.0 0.00 0.00 0.00 100 1009.4
20260902055839 83 143 3.0 5.0 0.00 0.00 0.00 100 1009.4
20260902055338 83 137 4.0 5.0 0.00 0.00 0.00 100 1009.4
20260902054837 83 130 3.0 6.0 0.00 0.00 0.00 100 1009.4
20260902054337 83 135 5.0 6.0 0.00 0.00 0.00 100 1009.4
20260902053836 83 120 4.0 6.0 0.00 0.00 0.00 100 1009.4
20260902053557 83 133 4.0 6.0 0.00 0.00 0.00 100 1009.4
20260902052836 83 126 4.0 5.0 0.00 0.00 0.00 100 1009.4
20260902052335 83 129 4.0 6.0 0.00 0.00 0.00 100 1009.4
20260902051834 83 126 5.0 6.0 0.00 0.00 0.00 100 1009.4
20260902051334 83 147 4.0 6.0 0.00 0.00 0.00 100 1009.4
20260902050833 83 133 5.0 6.0 0.00 0.00 0.00 100 1009.4
20260902050332 83 125 4.0 6.0 0.00 0.00 0.00 100 1009.4
20260902045831 81 146 4.0 6.0 0.00 0.00 0.00 100 1009.4
20260902045331 81 136 4.0 6.0 0.00 0.00 0.00 100 1009.4
20260902044830 81 140 4.0 6.0 0.00 0.00 0.00 100 1009.4
20260902044330 81 133 5.0 6.0 0.00 0.00 0.00 100 1009.4
20260902043829 82 140 4.0 5.0 0.00 0.00 0.00 100 1009.4
20260902043329 83 139 4.0 5.0 0.00 0.00 0.00 100 1009.4
20260902042828 83 127 4.0 5.0 0.00 0.00 0.00 100 1009.4
20260902042327 83 144 4.0 5.0 0.00 0.00 0.00 100 1009.4
20260902041827 81 142 4.0 5.0 0.00 0.00 0.00 100 1009.4
20260902041326 81 133 4.0 5.0 0.00 0.00 0.00 100 1009.4
20260902040826 81 127 3.0 4.0 0.00 0.00 0.00 100 1009.4
20260902040325 86 136 4.0 4.0 0.00 0.00 0.00 100 1009.4
20260902040049 87 144 3.0 4.0 0.00 0.00 0.00 100 1009.4
20260902035324 83 143 3.0 4.0 0.00 0.00 0.00 100 1009.4
20260902034823 83 130 2.0 3.0 0.00 0.00 0.00 100 1009.4
20260902034323 83 144 3.0 4.0 0.00 0.00 0.00 100 1009.4
20260902033822 83 136 3.0 4.0 0.00 0.00 0.00 100 1009.4
20260902033321 83 142 3.0 5.0 0.00 0.00 0.00 100 1009.4
20260902032820 83 149 3.0 5.0 0.00 0.00 0.00 100 1009.4
20260902032546 83 142 4.0 5.0 0.00 0.00 0.00 100 1009.4
20260902031820 80 268 0.0 0.0 0.00 0.00 0.00 100 1009.4
20260902031253 84 268 0.0 0.0 0.00 0.00 0.00 100 1009.4
20260902030727 80 268 0.0 0.0 0.00 0.00 0.00 100 1009.4
20260902030226 80 268 0.0 0.0 0.00 0.00 0.00 100 1009.4
20260902025718 81 268 0.0 0.0 0.00 0.00 0.00 100 1009.4
20260902025154 82 268 0.0 0.0 0.00 0.00 0.00 100 1009.4
20260902024646 82 268 0.0 0.0 0.00 0.00 0.00 100 1009.4
20260902024146 83 268 0.0 0.0 0.00 0.00 0.00 100 1009.4
20260902023631 85 268 0.0 0.0 0.00 0.00 0.00 100 1009.4
20260902023123 85 268 0.0 0.0 0.00 0.00 0.00 100 1009.4
20260902022612 86 268 0.0 2.0 0.00 0.00 0.00 100 1009.4
20260902022111 88 268 0.0 2.0 0.00 0.00 0.00 100 1009.4
20260902021604 89 268 0.0 4.0 0.00 0.00 0.00 100 1009.4
20260902021102 90 274 0.0 4.0 0.00 0.00 0.00 100 1009.4
20260902020557 90 274 0.0 5.0 0.00 0.00 0.00 100 1009.4
20260902020024 89 260 3.0 5.0 0.00 0.00 0.00 100 1009.4
20260902015022 89 258 3.0 5.0 0.00 0.00 0.00 100 1009.4
20260902014521 90 201 0.0 5.0 0.00 0.00 0.00 100 1009.4
20260902014238 89 243 0.0 6.0 0.00 0.00 0.00 100 1009.4
20260902013449 89 247 3.0 6.0 0.00 0.00 0.00 100 1009.4
20260902012933 90 232 2.0 6.0 0.00 0.00 0.00 100 1009.4
20260902012431 89 227 0.0 6.0 0.00 0.00 0.00 100 1009.4
20260902011926 90 227 0.0 8.0 0.00 0.00 0.00 100 1009.4
20260902011419 90 244 3.0 8.0 0.00 0.00 0.00 100 1009.4
20260902011139 90 298 0.0 8.0 0.00 0.00 0.00 100 1009.4
20260902010417 91 264 6.0 8.0 0.00 0.00 0.00 100 1009.4
20260902005916 91 230 3.0 9.0 0.00 0.00 0.00 100 1009.4
20260902005413 91 262 5.0 9.0 0.00 0.00 0.00 100 1009.4
20260902004913 91 277 6.0 9.0 0.00 0.00 0.00 100 1009.4
20260902004412 92 296 1.0 9.0 0.00 0.00 0.00 100 1009.4
20260902003850 92 288 6.0 9.0 0.00 0.00 0.00 100 1009.4
20260902003349 92 293 4.0 7.0 0.00 0.00 0.00 100 1009.4
20260902003108 91 201 0.0 7.0 0.00 0.00 0.00 100 1009.4
20260902002344 90 201 3.0 10.0 0.00 0.00 0.00 100 1009.4
20260902001842 90 226 0.0 10.0 0.00 0.00 0.00 100 1009.4
20260902001335 91 208 5.0 8.0 0.00 0.00 0.00 100 1009.4
20260902000834 92 246 0.0 6.0 0.00 0.00 0.00 100 1009.4
20260902000329 91 246 0.0 9.0 0.00 0.00 0.00 100 1009.4
20260901235827 91 234 2.0 9.0 0.00 0.00 0.00 100 1009.4
20260901235046 90 279 0.0 9.0 0.00 0.00 0.00 100 1009.4
20260901234317 91 205 0.0 6.0 0.00 0.00 0.00 100 1009.4
20260901233812 91 281 1.0 6.0 0.00 0.00 0.00 100 1009.4
20260901233312 92 265 4.0 10.0 0.00 0.00 0.00 100 1009.4
20260901232811 91 258 0.0 10.0 0.00 0.00 0.00 100 1009.4
20260901232306 90 265 5.0 9.0 0.00 0.00 0.00 100 1009.4
20260901231802 92 241 7.0 9.0 0.00 0.00 0.00 100 1009.4
20260901231301 91 192 0.0 9.0 0.00 0.00 0.00 100 1009.4
20260901230743 92 160 5.0 9.0 0.00 0.00 0.00 100 1009.4
20260901230242 92 268 3.0 10.0 0.00 0.00 0.00 100 1009.4
20260901225723 92 203 4.0 10.0 0.00 0.00 0.00 100 1009.4
20260901224443 92 216 4.0 10.0 0.00 0.00 0.00 100 1009.4
20260901223721 92 270 7.0 10.0 0.00 0.00 0.00 100 1009.4
20260901223220 91 157 4.0 10.0 0.00 0.00 0.00 100 1009.4
20260901222719 92 250 0.0 7.0 0.00 0.00 0.00 100 1009.4
20260901222219 92 232 0.0 11.0 0.00 0.00 0.00 100 1009.4
20260901221712 92 237 0.0 12.0 0.00 0.00 0.00 100 1009.4
20260901221211 92 260 7.0 12.0 0.00 0.00 0.00 100 1009.4
20260901220711 93 234 6.0 11.0 0.00 0.00 0.00 100 1009.4
20260901220210 92 220 6.0 8.0 0.00 0.00 0.00 100 1009.4
20260901215709 92 293 2.0 11.0 0.00 0.00 0.00 100 1009.4
20260901215209 91 281 3.0 11.0 0.00 0.00 0.00 100 1009.4
20260901214708 92 212 6.0 9.0 0.00 0.00 0.00 100 1009.4
20260901214430 90 198 0.0 12.0 0.00 0.00 0.00 100 1009.4
20260901213707 91 208 7.0 12.0 0.00 0.00 0.00 100 1009.4
20260901213206 91 223 8.0 12.0 0.00 0.00 0.00 100 1009.4
20260901212706 91 247 6.0 8.0 0.00 0.00 0.00 100 1009.4
20260901212205 92 255 2.0 8.0 0.00 0.00 0.00 100 1009.4
20260901211704 92 215 0.0 8.0 0.00 0.00 0.00 100 1009.4
20260901210633 91 234 6.0 10.0 0.00 0.00 0.00 100 1009.4
20260901210133 92 201 3.0 9.0 0.00 0.00 0.00 100 1009.4
20260901205632 91 95 0.0 10.0 0.00 0.00 0.00 100 1009.4
20260901205117 92 130 3.0 10.0 0.00 0.00 0.00 100 1009.4
20260901204616 92 198 5.0 10.0 0.00 0.00 0.00 100 1009.4
20260901204116 92 233 3.0 10.0 0.00 0.00 0.00 100 1009.4
20260901203831 91 187 3.0 9.0 0.00 0.00 0.00 100 1009.4
20260901203115 93 189 5.0 9.0 0.00 0.00 0.00 100 1009.4
20260901202614 92 68 0.0 9.0 0.00 0.00 0.00 100 1009.4
20260901202113 91 126 0.0 10.0 0.00 0.00 0.00 100 1009.4
20260901201613 93 137 5.0 10.0 0.00 0.00 0.00 100 1009.4
20260901201333 93 42 4.0 10.0 0.00 0.00 0.00 100 1009.4
20260901200611 94 198 0.0 10.0 0.00 0.00 0.00 100 1009.4
20260901200054 90 194 4.0 10.0 0.00 0.00 0.00 100 1009.4
20260901195814 91 223 4.0 10.0 0.00 0.00 0.00 100 1009.4
20260901195053 88 253 0.0 10.0 0.00 0.00 0.00 100 1009.4
20260901194553 90 237 6.0 10.0 0.00 0.00 0.00 100 1009.4
20260901194316 90 213 6.0 9.0 0.00 0.00 0.00 100 1009.4
20260901193551 89 250 3.0 9.0 0.00 0.00 0.00 100 1009.4
20260901193050 89 5 1.0 9.0 0.00 0.00 0.00 100 1009.4
20260901192542 88 327 1.0 8.0 0.00 0.00 0.00 100 1009.4
20260901192017 88 154 0.0 8.0 0.00 0.00 0.00 100 1009.4
20260901191516 88 240 4.0 8.0 0.00 0.00 0.00 100 1009.4
20260901191015 88 215 5.0 8.0 0.00 0.00 0.00 100 1009.4
20260901190515 87 85 0.0 8.0 0.00 0.00 0.00 100 1009.4
20260901190012 90 203 1.0 8.0 0.00 0.00 0.00 100 1009.4
20260901185511 90 251 4.0 8.0 0.00 0.00 0.00 100 1009.4
20260901185011 89 118 3.0 9.0 0.00 0.00 0.00 100 1009.4
20260901184008 88 112 6.0 8.0 0.00 0.00 0.00 100 1009.4
20260901183507 89 191 1.0 7.0 0.00 0.00 0.00 100 1009.4
20260901182930 88 210 0.0 7.0 0.00 0.00 0.00 100 1009.4
20260901182421 87 132 4.0 7.0 0.00 0.00 0.00 100 1009.4
20260901181921 89 156 1.0 6.0 0.00 0.00 0.00 100 1009.4
20260901181420 90 189 0.0 8.0 0.00 0.00 0.00 100 1009.4
20260901180915 91 261 3.0 8.0 0.00 0.00 0.00 100 1009.4
20260901180413 88 225 3.0 8.0 0.00 0.00 0.00 100 1009.4
20260901175913 88 153 0.0 7.0 0.00 0.00 0.00 100 1009.4
20260901175412 91 220 5.0 8.0 0.00 0.00 0.00 100 1009.4
20260901174911 87 192 0.0 9.0 0.00 0.00 0.00 100 1009.4
20260901174410 87 195 6.0 9.0 0.00 0.00 0.00 100 1009.4
20260901174128 86 210 4.0 10.0 0.00 0.00 0.00 100 1009.4
20260901173409 87 135 1.0 10.0 0.00 0.00 0.00 100 1009.4
20260901173133 89 201 6.0 10.0 0.00 0.00 0.00 100 1009.4
20260901172408 89 208 6.0 10.0 0.00 0.00 0.00 100 1009.4
20260901171907 87 222 1.0 10.0 0.00 0.00 0.00 100 1009.4
20260901171403 89 208 6.0 10.0 0.00 0.00 0.00 100 1009.4
20260901170902 88 199 4.0 9.0 0.00 0.00 0.00 100 1009.4
20260901170611 89 194 7.0 9.0 0.00 0.00 0.00 100 1009.4
20260901165855 81 274 3.0 10.0 0.00 0.00 0.00 100 1009.4
20260901165352 84 153 6.0 10.0 0.00 0.00 0.00 100 1009.4
20260901164852 80 171 5.0 10.0 0.00 0.00 0.00 100 1009.4
20260901164351 84 217 5.0 10.0 0.00 0.00 0.00 100 1009.4
20260901163851 84 223 8.0 10.0 0.00 0.00 0.00 100 1009.4
20260901163350 85 227 4.0 9.0 0.00 0.00 0.00 100 1009.4
20260901162849 80 182 2.0 9.0 0.00 0.00 0.00 100 1009.4
20260901162349 79 175 4.0 9.0 0.00 0.00 0.00 100 1009.4
20260901161848 75 177 7.0 9.0 0.00 0.00 0.00 100 1009.4
20260901161347 81 205 6.0 9.0 0.00 0.00 0.00 100 1009.4
20260901160847 85 212 4.0 9.0 0.00 0.00 0.00 100 1009.4
20260901160346 83 192 6.0 9.0 0.00 0.00 0.00 100 1009.4
20260901155845 81 226 1.0 7.0 0.00 0.00 0.00 100 1009.4
20260901155344 81 184 4.0 7.0 0.00 0.00 0.00 100 1009.4
20260901154845 82 192 4.0 7.0 0.00 0.00 0.00 100 1009.4
20260901154344 80 157 5.0 7.0 0.00 0.00 0.00 100 1009.4
20260901154105 80 115 0.0 7.0 0.00 0.00 0.00 100 1009.4
20260901153334 80 115 2.0 7.0 0.00 0.00 0.00 100 1009.4
20260901152832 82 132 4.0 7.0 0.00 0.00 0.00 100 1009.4
20260901152331 84 149 2.0 7.0 0.00 0.00 0.00 100 1009.4
20260901151830 83 109 5.0 9.0 0.00 0.00 0.00 100 1009.4
20260901151330 83 144 2.0 9.0 0.00 0.00 0.00 100 1009.4
20260901150829 82 106 7.0 8.0 0.00 0.00 0.00 100 1009.4
20260901150328 81 137 2.0 5.0 0.00 0.00 0.00 100 1009.4
20260901150051 80 358 0.0 0.0 0.00 0.00 0.00 100 1009.4
20260901145300 80 358 0.0 0.0 0.00 0.00 0.00 100 1009.4
20260901144746 80 358 0.0 0.0 0.00 0.00 0.00 100 1009.4
20260901144241 80 358 0.0 0.0 0.00 0.00 0.00 100 1009.4
20260901143738 79 358 0.0 0.0 0.00 0.00 0.00 100 1009.4
20260901143237 78 358 0.0 1.0 0.00 0.00 0.00 100 1009.4
20260901142731 78 358 0.0 3.0 0.00 0.00 0.00 100 1009.4
20260901142226 77 22 0.0 4.0 0.00 0.00 0.00 100 1009.4
20260901141934 77 37 3.0 5.0 0.00 0.00 0.00 100 1009.4
20260901141217 76 21 3.0 6.0 0.00 0.00 0.00 100 1009.4
20260901140932 75 18 3.0 6.0 0.00 0.00 0.00 100 1009.4
20260901140216 75 11 4.0 6.0 0.00 0.00 0.00 100 1009.4
20260901135715 75 5 3.0 6.0 0.00 0.00 0.00 100 1009.4
20260901135215 74 1 2.0 4.0 0.00 0.00 0.00 100 1009.4
20260901134712 72 337 2.0 5.0 0.00 0.00 0.00 100 1009.4
20260901133930 70 340 4.0 5.0 0.00 0.00 0.00 100 1009.4
20260901132708 69 323 1.0 3.0 0.00 0.00 0.00 100 1009.4
20260901132154 69 358 0.0 2.0 0.00 0.00 0.00 100 1009.4
20260901131628 69 358 0.0 4.0 0.00 0.00 0.00 100 1009.4
20260901131340 69 348 2.0 4.0 0.00 0.00 0.00 100 1009.4